SYRACUSE 3B

Last updated on Tue Sep 16 2025 00:02:46 GMT+0000 (Coordinated Universal Time)

1 29273U 06033B 25258.58518263 .00000005 00000+0 00000+0 0 9998 2 29273 2.1912 83.5462 0004541 118.0041 7.1973 1.00272570 69924
UTC large
Height (km)
Speed (km/s)
/
Latitude / Longitude
Inclination (degrees)
Orbital Period (minutes)
Azimuth
Elevation
Range (km)
Doppler Factor

Next 0 passes for location: London (51.5072 / 0.1276)

Sorry there are no passes over London.